Regional Weather Roundup
Issued by NWS Charleston, SC

Home | Current Version | Previous Version | Text Only | Print | Product List | Glossary On
Versions: 1 2 3 4 5 6 7 8 9 10 11 12 13 14 15 16 17 18 19 20 21 22 23 24 25 26 27 28 29 30 31 32 33 34 35 36 37 38 39 40 41 42 43 44 45 46 47 48 49 50
000
ASUS42 KCHS 211027
RWRCHS

REGIONAL WEATHER ROUNDUP
NATIONAL WEATHER SERVICE CHARLESTON SC
600 AM EDT MON AUG 21 2017

NOTE: "FAIR" INDICATES FEW OR NO CLOUDS BELOW 12,000 FEET WITH NO
SIGNIFICANT WEATHER AND/OR OBSTRUCTIONS TO VISIBILITY.

NOT ALL STATIONS ARE QUALITY CONTROLLED. USE DATA WITH CAUTION...
ESPECIALLY DEWPOINT OBSERVATIONS.

SCZ027-030-031-034>040-042>050-211100-
...SOUTHEAST SOUTH CAROLINA...

CITY           SKY/WX    TMP DP  RH WIND       PRES   REMARKS
N CHARLESTON   PTCLDY    77  77 100 NE5       30.14R
WATERFRONT PRK   N/A     83  78  84 CALM      29.97R HX  93
JOHNS ISLAND   FAIR      79  77  94 CALM      30.15R
PINOPOLIS        N/A     81  79  94 CALM      30.07R
MONCKS CORNER  FAIR      73  73 100 CALM      30.15R
SUMMERVILLE    FAIR      75  73  94 CALM      30.16R
BEAUFORT MCAS  CLEAR     78  78 100 N5        30.13R FOG
BEAUFORT ARPT  FAIR      79  77  94 CALM      30.13R
HILTON HEAD IS NOT AVBL
WALTERBORO     MOSUNNY   73  73 100 CALM      30.15S
ALLENDALE      NOT AVBL

...SOUTHERN MIDLANDS AND PEE DEE...

CITY           SKY/WX    TMP DP  RH WIND       PRES   REMARKS
GEORGETOWN     FAIR      75  73  94 CALM      30.16R
KINGSTREE      FAIR      72  72 100 CALM      30.16R FOG
ORANGEBURG     CLEAR     75  73  93 CALM      30.16R
BARNWELL       FAIR      77  75  94 CALM      30.15S FOG
AIKEN          FAIR      72  72 100 CALM      30.20R
MANNING        FAIR      73  73 100 E10G17    30.16R
COLUMBIA       PTCLDY    76  72  87 CALM      30.16R
SUMTER         PTCLDY    74  72  92 CALM      30.14R
FLORENCE       PTCLDY    75  75 100 CALM      30.17R
MYRTLE BEACH   MOCLDY    79  79 100 NE7       30.16
N MYRTLE BEACH MOCLDY    78  77  96 N3        30.15R

$$

GAZ063-065-086>088-099>101-113>116-118-119-134>141-150-211100-
...SOUTHEAST GEORGIA...

CITY           SKY/WX    TMP DP  RH WIND       PRES   REMARKS
SAVANNAH ARPT  PTCLDY    78  77  96 N5        30.13R
HUNTER AAF     CLEAR     78  76  92 CALM      30.10R
FORT STEWART   PTCLDY    75  74  95 CALM      30.10R
STATESBORO       N/A     76  76 100 CALM      30.14R FOG
SYLVANIA       FOG       76  76 100 CALM      30.15R VSB 3/4
CLAXTON        FAIR      74  74  98 CALM      30.13R

...CSRA...CENTRAL AND FAR SOUTHEAST GEORGIA...

CITY           SKY/WX    TMP DP  RH WIND       PRES   REMARKS
THOMSON        CLEAR     73  72  96 CALM      30.21R
AUGUSTA-BUSH   FOG       77  76  96 CALM      30.14S VSB 1/4
AUGUSTA-DANIEL CLEAR     79  74  84 SE3       30.16R
SWAINSBORO     FAIR      73  73 100 CALM      30.15R
VIDALIA        PTCLDY    75  73  94 CALM      30.14R
EASTMAN        FAIR      73  73 100 CALM      30.16R
HAZLEHURST     FAIR      75  72  91 CALM      30.12R
ALMA           CLEAR     72  70  93 CALM      30.12R
WAYCROSS       CLEAR     72  69  90 CALM      30.12R FOG
JESUP          PTSUNNY   75  72  88 CALM      30.13R FOG
BAXLEY         FAIR      72  70  94 CALM      30.13R
BRUNSWICK      CLOUDY    77  73  88 CALM      30.13R
SAINT SIMONS   MOCLDY    81  78  91 CALM      30.10R

$$

SCZ027-028-034-036>038-045-046-048>050-GAZ119-141-211100-
...LAKE AND SUPPLEMENTAL COASTAL OBSERVATIONS...

STATION/POSITION TIME  TEMP    WIND        PRES    WAVE   SWELL
                       AIR SEA DIR/SP/G            HT/PER HT/PER/DIR
                 (UTC) (F)     (DEG/KT/KT) (MB)    (FT/S) (FT/S/D)
WINYAH BAY       0945   78     340/  2     1021.0R
LAKE MURRAY      1020   81     220/  3/  3 1020.3R
ACE BASIN NERRS  0945   78        CALM     1020.0S
FORT PULASKI     1000   82 87  360/  3/  4 1020.4
SAPELO ISLAND    1000   79        CALM     1020.0

$$

ANZ835-935-AMZ111-154-330-350-352-354-370-450-454-472-211100-
...C-MAN AND BUOY OBSERVATIONS...

STATION/POSITION TIME  TEMP    WIND        PRES    WAVE   SWELL
                       AIR SEA DIR/SP/G            HT/PER HT/PER/DIR
                 (UTC) (F)     (DEG/KT/KT) (MB)    (FT/S) (FT/S/D)
BUOY 41004       1010   83 85  350/  2/  4 1020.1
BUOY 41008       0950   83 85  160/  2/  4 1019.4R   3/ 8   2/110/ 8
FOLLY BEACH CMAN 1000   82     310/  3/  3 1021.1R
CAPERS NEARSHORE 1008   82 86  330/  2/  6 1020.5R
FRIPP NEARSHORE  1008   84     150/  4/  6 1019.8R


STATION/POSITION TIME  TEMP    WIND        PRES    WAVE   SWELL
                       AIR SEA DIR/SP/G            HT/PER HT/PER/DIR
                 (UTC) (F)     (DEG/KT/KT) (MB)    (FT/S) (FT/S/D)
5E ST. MARYS GA  0930      84                N/A     2/ 8
FRYING PAN BUOY  1010   83 84  180/  2/  4 1020.8
BUOY 41025       0950   82 85   30/  8/ 10 1021.1S   2/ 8   2/120/ 8
CAPE LOOKOUT NC  1000   81      50/  7/  8 1020.9R
BUOY 41002       0950   83 84  170/  8/ 10 1021.4R   3/ 9   2/ 80/ 9
BUOY 41010       1010   83 85  130/  8/ 10 1019.7
ST AUGUSTINE FL  1000   80 81   60/  1/  1 1019.3R


$$




USA.gov is the U.S. government's official web portal to all federal, state and local government web resources and services.